THOR ABLESTAR DEB, 38521

Orbit data source: Space-Track

THOR ABLESTAR DEB, 38521 is space debris in LEO originally from a launch on Sat, 28 Sep 1963 UTC launched from the Air Force Western Test Range (AFWTR). Debris objects in space refer to the collection of defunct objects orbiting the Earth. Examples of debris include non-operational satellites, rocket bodies, and fragments generated from explosions, collisions, or faulty payload assembly.

Loading next visibility...
Identifier
38521, 1963-038Q
Orbit
LEO
Country
Flag of USUS
Related business
Manufacturer
Unknown
Mission
Spacecraft
Bus & Motor
Unknown
Mass
Unknown
Launch date (UTC)
1963-09-28 (62 years ago)
Launch vehicle
Unknown
Launch site
Air Force Western Test Range (AFWTR)
Object type
Payload
Rocket body
Debris
Shape & HBR
Unknown shape, 0.1 m
Radar Cross Section
Small (<0.1 m²)

Expand to show TLE details & history
Last TLE update: 5 days ago

TLE from 5 days ago
0 THOR ABLESTAR DEB
1 38521U 63038Q   25289.39089428  .00000112  00000-0  17293-3 0  9997
2 38521  89.9749 333.8313 0039530 327.0418  51.4420 13.45381374602728
Epoch: 2025-10-16T09:22Z
TLE epoch observation values (Epoch: 2025-10-16T09:22:53.265Z)
Latitude
18.83405°
Longitude
167.96659°
Altitude
1,073.423 km
Speed
7.326 km/s
True Right ascension
22h 15m 21s
True Declination
18° 44' 01"
Sunlit
Object was in full shadow at epoch
Visualization orbit readout
Latitude
Unknown
Longitude
Unknown
Altitude
Unknown
Speed
Unknown
Apparent Right ascension
Unknown
Apparent Declination
Unknown
Sunlit
N/A
Visualization observer readout
Local Sidereal Time
06:19:59
Azimuth
Unknown
Elevation
Unknown
Doppler factor
Unknown
Orbital elements
Apogee altitude
1,115.864 km
Perigee altitude
1,056.849 km
Semi-major axis
7,464.493 km
Eccentricity
0.00395
Inclination
89.9749°
RAAN
333.8313°
Arg. of periapsis
327.0418°
True anomaly
51.79731°
Mean anomaly
51.442°
Eccentric anomaly
51.61955°
Mean motion
3.36545 °/min
Orbital period
106.97 mins
BSTAR
0.00017293
Loading maneuver chart data...
Computing Atmospheric mass density...

Documentation

Showing up to 5 results
|